GEFSCGP_con_probscp_198.txt.gz
Probability
0 0 0 0 0 0 0 0 0 0 1 2 2 2 4 8 12 13 13 12 10 11 10 7 6 6 5 5 5 6 8 9 8 8 8 7 6 6 6 6 6 6 7 9
0 0 0 0 0 0 0 0 0 0 1 2 1 2 4 8 12 12 11 10 9 10 9 6 5 6 6 6 6 6 7 8 8 9 9 8 6 5 5 6 5 4 6 7
0 0 0 0 0 0 0 0 0 0 1 2 1 1 3 7 9 9 8 8 7 7 7 5 4 5 5 7 7 7 7 7 9 10 10 8 6 4 4 5 4 3 4 5
0 0 0 0 0 0 0 0 0 0 1 1 0 0 1 4 5 6 6 5 4 4 4 3 3 3 3 5 7 7 7 8 8 10 11 9 5 3 4 4 4 3 3 3
0 0 0 0 0 0 0 0 0 0 0 0 0 0 0 1 2 3 4 3 3 3 3 2 1 1 1 3 6 7 7 8 8 10 10 8 4 3 4 5 4 4 4 4
0 0 0 0 0 0 0 0 0 0 0 0 0 0 0 0 1 1 2 3 3 3 1 1 0 0 0 2 5 6 6 7 8 9 8 6 4 3 4 5 5 5 4 4
0 0 0 0 0 0 0 0 0 0 0 0 0 0 0 0 0 1 2 3 3 2 1 1 1 0 0 2 5 6 6 6 6 7 6 6 5 5 4 5 5 4 4 4
0 0 0 0 0 0 0 0 0 0 0 1 1 0 0 0 0 1 2 3 3 2 1 1 1 0 0 1 4 6 5 4 4 4 5 5 5 4 4 4 4 3 3 3
0 0 0 0 0 0 0 0 0 0 1 2 1 0 0 0 0 1 2 3 3 2 1 1 1 0 0 1 2 3 3 3 3 3 4 4 4 4 4 4 3 3 3 3
0 0 0 0 0 0 0 0 0 0 1 1 1 0 0 0 0 0 1 1 2 1 0 0 0 0 0 0 1 1 1 2 2 3 3 4 4 3 4 3 3 3 3 2
0 0 0 0 0 0 0 0 0 0 0 0 0 0 0 0 0 0 0 1 1 1 0 0 0 0 0 0 0 0 0 1 1 1 2 3 3 3 3 3 3 3 3 3
0 0 0 0 0 0 0 0 0 0 0 0 0 0 0 0 0 0 0 1 1 0 0 0 0 0 0 0 0 0 0 0 0 0 1 2 2 2 2 2 2 2 2 2
0 0 0 0 0 0 1 0 0 0 0 0 0 0 0 0 0 0 0 0 0 0 0 0 0 0 0 0 0 0 0 0 0 0 0 1 1 1 1 1 1 1 1 1
0 0 0 0 0 0 0 0 0 0 0 0 0 0 0 0 0 0 0 0 0 0 0 0 0 0 0 0 0 0 0 0 0 0 0 0 0 0 0 0 0 0 0 0
0 0 0 0 0 0 1 1 1 0 0 0 0 0 0 0 0 0 0 0 0 0 0 0 0 0 0 0 0 0 0 0 0 0 0 0 0 0 0 0 0 0 0 0
0 0 0 0 0 0 1 2 1 0 0 0 0 0 0 0 0 0 0 0 0 0 0 0 0 0 0 0 0 0 0 0 0 0 0 0 0 0 0 0 0 0 0 0
0 0 0 0 0 0 1 1 1 0 0 0 0 0 0 0 0 0 0 0 0 0 0 0 0 0 0 0 0 0 0 0 0 0 0 0 0 0 0 0 0 0 0 0
0 0 0 0 0 0 0 0 0 0 0 0 0 0 0 0 0 0 0 0 0 0 0 0 0 0 0 0 0 0 0 0 0 0 0 0 0 0 0 0 0 0 0 0
0 0 0 0 0 0 0 0 0 0 0 0 0 0 0 0 0 0 0 0 0 0 0 0 0 0 0 0 0 0 0 0 0 0 0 0 0 0 0 0 0 0 0 0
0 0 0 0 0 0 0 0 0 0 0 0 0 0 0 0 0 0 0 0 0 0 0 0 0 0 0 0 0 0 0 0 0 0 0 0 0 0 0 0 0 0 0 0
0 0 0 0 0 0 0 0 0 0 0 0 0 0 0 0 0 0 0 0 0 0 0 0 0 0 0 0 0 0 0 0 0 0 0 0 0 0 0 0 0 0 0 0
0 0 0 0 0 0 0 0 0 0 0 0 0 0 0 0 0 0 0 0 0 0 0 0 0 0 0 0 0 0 0 0 0 0 0 0 0 0 0 0 0 0 0 0
0 0 0 0 0 0 0 0 0 0 0 0 0 0 0 0 0 0 0 0 0 0 0 0 0 0 0 0 0 0 0 0 0 0 0 0 0 0 0 0 0 0 0 0
0 0 0 0 0 0 0 0 0 0 0 0 0 0 0 0 0 0 0 0 0 0 0 0 0 0 0 0 0 0 0 0 0 0 0 0 0 0 0 0 0 0 0 0
0 0 0 0 0 0 0 0 0 0 0 0 0 0 0 0 0 0 0 0 0 0 0 0 0 0 0 0 0 0 0 0 0 0 0 0 0 0 0 0 0 0 0 0
0 0 0 0 0 0 0 0 0 0 0 0 0 0 0 0 0 0 0 0 0 0 0 0 0 0 0 0 0 0 0 0 0 0 0 0 0 0 0 0 0 0 0 0

GEFSCGP_con_probscp_204.txt.gz
Probability
0 0 0 0 0 0 0 0 0 0 0 1 2 4 5 4 3 6 6 6 5 5 8 12 12 8 7 7 8 8 10 14 17 17 17 16 14 11 10 12 15 17 17 17
0 0 0 0 0 0 0 0 0 0 0 1 2 3 4 4 4 5 5 4 3 4 9 13 12 9 7 6 7 8 9 11 14 15 16 15 14 11 10 11 12 14 15 15
1 0 0 0 0 0 0 0 0 0 0 0 1 2 4 5 5 4 4 3 2 3 9 14 14 10 7 5 6 7 7 8 11 13 13 14 14 12 10 10 10 12 13 13
1 0 0 0 0 0 0 0 0 0 0 0 0 1 4 6 6 4 3 2 1 3 8 13 13 9 6 5 5 6 7 8 9 11 11 12 14 13 11 10 11 12 12 11
1 0 0 0 0 0 0 0 0 0 0 0 0 0 2 5 6 5 4 2 1 2 8 11 10 7 5 4 4 5 7 8 9 9 10 11 13 13 12 12 12 12 11 9
0 0 0 0 0 0 0 0 0 0 0 0 0 0 2 4 5 4 4 3 2 3 6 8 8 6 5 4 4 4 7 8 8 8 8 9 12 13 13 13 13 11 9 7
0 0 0 0 0 0 0 0 0 0 0 0 0 1 3 4 4 3 4 4 3 4 5 6 6 5 4 4 4 4 4 5 6 6 6 7 9 12 14 13 12 10 8 7
0 0 0 0 0 0 0 0 0 0 0 0 0 2 4 4 3 2 3 3 3 4 4 4 3 3 2 3 4 4 5 5 5 4 4 5 7 10 11 11 10 9 8 8
0 0 0 0 0 0 0 0 0 0 0 0 1 3 5 4 1 1 2 2 2 3 3 1 1 1 1 2 4 5 7 7 5 4 4 5 6 7 9 9 8 7 7 6
0 0 0 0 0 0 0 0 0 0 0 0 1 3 4 2 1 0 0 1 2 3 3 1 0 0 0 1 3 5 5 6 5 4 5 6 6 7 8 9 8 6 5 4
0 0 0 0 0 0 0 0 0 0 0 0 0 1 1 1 0 0 0 0 2 3 3 2 1 0 0 1 3 3 3 3 3 3 4 5 6 6 7 8 8 6 4 3
0 0 0 0 0 0 0 0 0 0 0 0 1 1 1 1 0 0 0 0 1 2 2 3 2 1 1 2 3 3 3 3 2 1 2 3 4 4 5 5 4 3 3 3
0 0 0 0 0 0 0 0 0 0 0 0 1 2 2 1 0 0 0 0 0 1 1 1 2 2 3 3 4 3 3 3 2 1 1 1 1 1 2 1 1 1 2 2
0 0 0 0 0 0 0 0 0 0 0 0 1 1 1 1 0 0 0 0 1 1 0 1 2 3 4 4 4 3 2 2 2 1 0 0 0 0 0 0 0 0 1 1
0 0 0 0 0 0 0 0 0 0 0 0 0 0 0 0 0 0 0 1 2 2 1 1 2 2 3 3 3 2 1 1 1 0 0 0 0 0 0 0 0 0 0 0
0 0 0 0 0 0 0 0 0 0 0 0 0 0 0 0 0 0 0 2 3 2 1 0 1 1 1 1 1 1 1 1 0 0 0 0 0 0 0 0 0 0 0 0
0 0 0 0 0 0 0 0 0 0 0 0 0 0 0 0 0 0 0 1 2 2 1 0 0 0 0 0 0 0 0 0 0 0 0 0 0 0 0 0 0 0 0 0
0 0 0 0 0 0 0 0 0 0 0 0 0 0 0 0 0 0 0 0 1 1 0 0 0 0 0 0 0 0 0 0 0 0 0 0 0 0 0 0 0 0 0 0
0 0 0 0 0 0 0 0 0 0 0 0 0 0 0 0 0 0 0 0 0 0 0 0 0 0 0 0 0 0 0 0 0 0 0 0 0 0 0 0 0 0 0 0
0 0 0 0 0 0 0 0 0 0 0 0 0 0 0 0 0 0 0 0 0 0 0 0 0 0 0 0 0 0 0 0 0 0 0 0 0 0 0 0 0 0 0 0
0 0 0 0 0 0 0 0 0 0 0 0 0 0 0 0 0 0 0 0 0 0 0 0 0 0 0 0 0 0 0 0 0 0 0 0 0 0 0 0 0 0 0 0
0 0 0 0 0 0 0 0 0 0 1 0 0 0 0 0 0 0 0 0 0 0 0 0 0 0 0 0 0 0 0 0 0 0 0 0 0 0 0 0 0 0 0 0
0 0 0 0 0 0 0 0 0 0 0 0 0 0 0 0 0 0 0 0 0 0 0 0 0 0 0 0 0 0 0 0 0 0 0 0 0 0 0 0 0 0 0 0
0 0 0 0 0 0 0 0 0 0 0 0 0 0 0 0 0 0 0 0 0 0 0 0 0 0 0 0 0 0 0 0 0 0 0 0 0 0 0 0 0 0 0 0
0 0 0 0 0 0 0 0 0 0 0 0 0 0 0 0 0 0 0 0 0 0 0 0 0 0 0 0 0 0 0 0 0 0 0 0 0 0 0 0 0 0 0 0
0 0 0 0 0 0 0 0 0 0 0 0 0 0 0 0 0 0 0 0 0 0 0 0 0 0 0 0 0 0 0 0 0 0 0 0 0 0 0 0 0 0 0 0

GEFSCGP_con_probscp_210.txt.gz
Probability
0 0 0 0 0 0 0 0 1 0 0 0 2 5 8 8 8 13 20 22 21 21 23 27 27 25 22 22 23 23 21 18 17 20 22 21 16 14 17 17 17 19 20 21
0 0 0 0 0 0 0 0 1 1 1 1 2 5 8 9 10 14 20 22 23 23 25 27 28 26 25 24 24 23 22 21 21 23 23 22 17 14 15 16 16 18 19 19
0 0 0 0 0 0 0 0 1 2 2 2 2 5 9 12 14 17 19 22 24 25 26 27 27 28 27 26 24 23 23 24 23 23 22 21 18 14 13 13 15 17 18 17
0 0 0 0 0 0 0 0 1 1 1 1 1 5 11 16 17 19 20 21 22 23 23 22 24 25 24 24 23 23 23 22 20 19 19 18 16 12 11 11 13 15 16 16
0 0 0 0 0 0 0 0 0 0 0 0 0 4 12 17 17 18 21 21 21 19 16 16 18 19 18 19 20 20 21 20 17 16 16 15 13 11 9 9 10 11 12 12
0 0 0 0 0 0 0 0 0 0 0 0 0 4 12 16 15 16 19 21 19 14 10 12 14 15 14 14 15 16 18 19 17 15 13 12 11 10 9 9 9 8 8 9
0 0 0 0 0 0 0 0 0 0 0 0 1 5 11 14 14 14 16 19 17 11 9 10 14 16 16 13 13 14 16 17 15 12 11 9 9 9 9 9 9 10 9 9
0 0 0 0 0 0 0 0 0 0 0 0 2 7 12 14 13 12 13 15 14 12 10 10 12 16 16 13 12 12 12 14 13 11 9 8 7 8 8 8 10 11 10 10
0 0 0 0 0 0 0 1 0 0 0 0 2 9 14 14 11 8 8 10 11 11 10 8 9 12 12 11 11 11 10 11 11 11 10 7 6 6 6 7 9 10 10 11
0 0 0 0 0 0 0 0 0 0 0 0 2 8 14 13 9 5 4 7 9 8 7 6 7 9 9 9 10 11 10 10 11 11 10 7 5 4 4 4 7 10 11 12
0 0 0 0 0 0 0 0 0 0 0 0 2 6 10 10 7 4 3 6 8 6 5 6 7 7 7 8 8 9 9 9 10 10 9 7 5 5 5 4 5 8 11 12
0 0 0 0 0 0 0 0 0 1 1 0 1 5 7 8 7 3 3 5 7 6 5 6 6 6 5 5 5 6 6 6 7 8 8 6 5 5 5 5 5 6 8 9
0 0 0 0 0 0 0 0 0 1 2 1 1 4 7 8 6 3 2 3 5 6 6 6 7 6 5 4 4 5 5 4 4 4 5 4 4 4 4 4 4 4 5 6
0 0 0 0 0 0 0 0 0 1 2 1 1 4 8 8 6 2 1 1 3 5 6 7 7 6 5 4 3 4 4 4 4 3 3 3 3 3 3 3 3 3 3 3
0 0 0 0 0 0 0 0 1 1 2 1 1 3 6 6 4 1 0 0 1 2 4 5 6 5 5 3 1 2 2 3 3 2 2 2 3 3 3 3 3 1 1 2
0 0 0 0 0 0 1 1 1 2 3 2 2 3 4 4 3 1 0 0 1 1 3 4 3 3 3 2 1 0 1 1 1 1 1 1 1 2 3 2 2 1 2 3
1 1 0 0 0 0 1 1 1 1 2 3 3 3 4 3 3 2 1 0 0 1 2 2 1 1 1 1 1 0 0 0 0 0 0 0 1 1 1 1 1 2 3 5
3 3 1 0 0 0 1 1 0 0 1 2 3 3 4 3 3 3 2 1 0 1 1 1 0 0 1 1 1 0 0 0 0 0 0 0 0 0 0 1 3 4 5 6
5 5 4 1 0 0 0 0 0 0 0 1 2 3 3 3 3 3 4 4 2 2 2 1 0 0 1 1 0 0 1 1 0 0 0 0 0 0 1 2 4 5 6 7
4 6 5 2 1 0 0 0 0 0 1 2 3 3 4 3 3 3 4 4 4 4 4 3 2 1 2 1 1 1 2 2 1 0 0 0 0 0 1 3 5 6 7 6
3 5 5 4 2 1 0 0 1 3 4 4 4 5 5 5 4 4 3 3 4 5 4 3 2 2 3 3 2 3 3 3 2 1 0 1 1 0 1 4 6 7 6 5
1 3 5 5 4 3 2 1 3 7 7 5 5 6 6 6 5 4 3 3 3 3 2 2 2 3 3 3 3 3 3 3 3 1 1 2 2 2 2 4 6 6 4 2
2 3 6 6 6 5 4 3 4 6 6 4 4 5 5 5 4 3 3 3 3 3 3 2 3 3 2 2 3 2 2 2 3 3 3 3 4 3 3 3 3 3 2 1
4 4 5 6 6 5 3 2 2 2 2 3 3 3 3 3 3 3 3 3 3 3 3 4 4 3 2 2 2 1 0 1 3 3 4 4 3 3 3 3 2 1 1 0
3 3 3 5 6 4 2 1 1 0 2 3 2 1 2 3 3 3 3 4 3 3 4 5 4 2 1 1 1 1 0 1 2 3 4 3 2 1 2 2 1 0 0 0
2 2 3 5 7 5 2 2 1 1 3 4 2 1 1 3 3 3 4 4 4 3 4 5 4 2 0 0 1 0 0 0 2 4 4 2 1 0 1 1 1 0 0 0

GEFSCGP_con_probscp_216.txt.gz
Probability
0 0 0 0 0 0 0 0 0 0 0 2 5 8 11 15 19 22 22 23 22 18 14 12 9 6 4 3 1 0 1 2 2 4 6 5 4 4 3 1 0 0 1 0
0 0 0 0 0 0 0 0 0 0 0 2 6 9 11 14 18 21 22 22 19 16 14 12 10 7 4 3 2 0 0 1 1 3 5 5 5 4 3 2 1 1 1 1
0 0 0 0 0 0 0 0 0 0 0 2 5 8 10 13 15 17 20 20 17 14 12 12 11 8 4 2 1 0 0 0 0 2 4 6 5 5 4 3 2 1 2 2
0 0 0 0 0 0 0 0 0 0 0 1 2 5 8 10 11 13 16 18 16 12 11 10 9 7 5 3 1 0 0 0 0 1 4 6 6 5 5 4 3 3 3 3
0 0 0 0 0 0 0 0 0 0 0 0 0 2 5 8 9 10 13 16 14 11 10 9 8 7 6 4 2 1 1 1 0 1 3 6 6 5 4 3 3 3 3 3
0 0 0 0 0 0 0 0 0 0 0 0 0 1 3 6 8 9 12 13 11 9 9 8 7 6 6 4 3 2 1 1 1 2 4 5 5 3 1 1 1 3 3 3
0 0 0 0 0 0 0 0 0 0 0 0 0 1 2 4 6 8 10 9 7 7 7 7 7 6 6 4 3 2 1 1 1 2 3 3 3 1 0 0 1 2 3 3
0 0 0 0 0 0 0 0 0 0 0 0 0 1 1 3 5 7 6 4 4 6 6 6 6 6 6 4 3 2 1 0 0 1 1 1 1 0 0 0 0 1 2 2
0 0 0 0 0 0 0 0 0 0 0 0 0 0 1 3 5 5 3 2 3 6 6 6 6 6 5 4 3 2 0 0 0 0 0 0 0 0 0 0 0 0 1 1
0 0 0 0 0 0 0 0 0 0 0 0 0 0 1 2 3 3 2 2 3 5 6 5 5 6 5 3 3 2 1 0 0 0 1 0 0 0 0 0 0 0 0 0
0 0 0 0 0 0 0 0 0 0 0 0 0 0 0 1 1 2 1 2 2 4 5 5 4 4 5 4 3 2 1 0 0 0 0 0 0 0 0 0 0 0 0 0
0 0 0 0 0 0 0 0 0 0 0 0 0 0 0 1 1 0 0 1 1 1 3 3 3 3 5 5 3 1 0 0 0 0 0 0 0 0 0 0 0 0 0 0
0 0 0 0 0 0 0 0 0 0 0 0 0 0 0 0 0 0 0 0 0 0 1 1 1 3 4 4 2 1 0 0 0 0 0 0 0 0 0 0 0 0 0 0
0 0 0 0 0 0 0 0 0 0 0 0 0 0 0 0 0 0 0 0 0 0 0 0 1 2 2 2 1 0 0 0 0 0 0 0 0 0 0 0 0 0 0 0
0 0 0 0 0 0 0 0 0 0 0 0 0 0 0 0 0 0 0 0 0 0 0 0 0 1 1 0 0 0 0 0 0 0 0 0 0 0 0 0 0 0 0 0
0 0 0 0 0 0 0 0 0 0 0 0 0 0 0 0 0 0 0 0 0 0 0 0 0 0 0 0 0 0 0 0 0 0 0 0 0 0 0 0 0 0 0 0
1 0 0 0 0 0 0 0 0 0 0 0 0 0 0 0 0 0 0 0 0 0 0 0 0 0 0 0 0 0 0 0 0 0 0 0 0 0 0 0 0 0 0 0
1 0 0 0 0 0 0 0 0 0 0 0 0 0 0 0 0 0 0 0 0 0 0 0 0 0 0 0 0 0 0 0 0 0 0 0 0 0 0 0 0 0 0 0
1 0 0 0 0 0 0 0 0 0 0 0 0 0 0 0 0 0 0 0 0 0 0 0 0 0 0 0 0 0 0 0 0 0 0 0 0 0 0 0 0 0 0 0
0 0 0 0 0 1 0 0 0 0 0 0 0 0 0 0 0 0 0 0 0 0 0 0 0 0 0 0 0 0 0 0 0 0 0 0 0 0 0 0 0 0 0 0
0 0 0 0 0 0 0 0 0 0 0 0 0 0 0 0 0 0 0 0 0 0 0 0 0 0 0 0 0 0 0 0 0 0 0 0 0 0 0 0 0 0 0 0
0 0 0 0 0 0 0 0 0 0 0 0 0 0 0 0 0 0 0 0 0 0 0 0 0 0 0 0 0 0 0 0 0 0 0 0 0 0 0 0 0 0 0 0
0 0 0 0 0 0 0 0 0 0 0 0 0 0 0 0 0 0 0 0 0 0 0 0 0 0 0 0 0 0 0 0 0 0 0 0 0 0 0 0 0 0 0 0
0 0 0 0 1 1 0 0 0 0 0 0 0 0 0 0 0 0 0 0 0 0 0 0 0 0 0 0 0 0 0 0 0 0 0 0 0 0 0 0 0 0 0 0
0 0 0 0 1 1 0 0 0 0 0 0 0 0 0 0 0 0 0 0 0 0 0 0 0 0 0 0 0 0 0 0 0 0 0 0 0 0 0 0 0 0 0 0
0 0 0 0 1 1 0 0 1 1 1 0 0 0 0 0 0 0 0 0 0 0 0 0 0 0 0 0 0 0 0 0 0 0 0 0 0 0 0 0 0 0 0 0

GEFSCGP_con_probscp_222.txt.gz
Probability
0 0 0 0 0 0 0 0 0 1 3 3 3 2 3 7 11 12 11 9 5 3 1 1 1 2 2 1 0 0 0 0 1 1 2 3 3 3 3 3 3 2 1 1
0 0 0 0 0 0 0 0 0 2 3 3 2 1 2 6 10 12 11 9 6 4 2 1 1 1 1 0 0 0 0 0 0 0 1 1 2 3 3 3 3 2 1 1
0 0 0 0 0 0 0 0 0 1 2 2 1 0 1 4 8 10 10 9 7 6 4 2 1 1 0 0 0 0 0 0 0 0 0 0 1 1 3 4 3 2 1 0
0 0 0 0 0 0 0 0 0 0 1 1 0 0 1 3 5 7 8 8 7 7 6 5 3 2 1 0 0 0 0 0 0 0 0 0 0 1 3 4 3 2 1 0
0 0 0 0 0 0 0 0 0 0 0 0 0 0 0 1 2 4 7 7 7 7 7 6 5 4 2 1 0 0 0 0 0 0 0 0 0 1 2 2 2 1 1 0
0 0 0 0 0 0 0 0 0 0 0 0 0 0 0 0 0 2 5 7 7 7 8 7 6 4 2 1 0 0 0 0 0 0 0 0 0 0 1 1 0 0 0 0
0 0 0 0 0 0 0 0 0 0 0 0 0 0 0 0 0 1 4 6 6 8 8 7 6 5 2 0 0 0 0 0 0 0 0 0 0 0 0 0 0 0 0 0
0 0 0 0 0 0 0 0 0 0 0 0 0 0 0 0 0 1 3 4 4 5 6 6 6 5 3 1 0 0 0 0 0 0 0 0 0 0 0 0 0 0 0 0
0 0 0 0 0 0 0 0 0 0 0 0 0 0 0 0 0 1 2 3 3 2 4 5 6 5 3 1 0 0 0 0 0 0 0 0 0 0 0 0 1 0 0 0
0 0 0 0 0 0 0 0 0 0 0 0 0 0 0 0 0 1 2 3 2 1 2 4 4 3 2 1 0 0 0 0 0 0 0 0 0 0 0 0 0 0 0 0
0 0 0 0 0 0 0 0 0 0 0 0 0 0 0 0 0 1 2 3 2 1 1 2 2 1 1 0 0 0 0 0 0 0 0 0 0 0 0 0 0 0 0 0
0 0 0 0 0 0 0 0 0 0 0 0 0 0 0 0 0 1 2 3 2 1 0 1 1 0 0 0 0 0 0 0 0 0 0 0 0 0 0 0 0 0 0 0
0 0 0 0 0 0 0 0 0 0 0 0 0 0 0 0 0 1 1 1 1 0 0 0 0 0 0 0 0 0 0 0 0 0 0 0 0 0 0 0 0 0 0 0
0 0 0 0 0 0 0 0 0 0 0 0 0 0 0 0 0 0 0 0 0 0 0 0 0 0 0 0 0 0 0 0 0 0 0 0 0 0 0 0 0 0 0 0
0 0 0 0 0 0 0 0 0 0 0 0 0 0 0 0 0 0 0 0 0 0 0 0 0 0 0 0 0 0 0 0 0 0 0 0 0 0 0 0 0 0 0 0
0 0 0 0 0 0 0 0 0 0 0 0 0 0 0 0 0 0 0 0 0 0 0 0 0 0 0 0 0 0 0 0 0 0 0 0 0 0 0 0 0 0 0 0
0 0 0 0 0 0 0 0 0 0 0 0 0 0 0 0 0 0 0 0 0 0 0 0 0 0 0 0 0 0 0 0 0 0 0 0 0 0 0 0 0 0 0 0
0 0 0 0 0 0 0 0 0 0 0 0 0 0 0 0 0 0 0 0 0 0 0 0 0 0 0 0 0 0 0 0 0 0 0 0 0 0 0 0 0 0 0 0
0 0 0 0 0 0 0 0 0 0 0 0 0 0 0 0 0 0 0 0 0 0 0 0 0 0 0 0 0 0 0 0 0 0 0 0 0 0 0 0 0 0 0 0
0 0 0 0 0 0 0 0 0 0 0 0 0 0 0 0 0 0 0 0 0 0 0 0 0 0 0 0 0 0 0 0 0 0 0 0 0 0 0 0 0 0 0 0
0 0 0 0 0 0 0 0 0 0 0 0 0 0 0 0 0 0 0 0 0 0 0 0 0 0 0 0 0 0 0 0 0 0 0 0 0 0 0 0 0 0 0 0
0 0 0 0 0 0 1 0 0 0 0 0 0 0 0 0 0 0 0 0 0 0 0 0 0 0 0 0 0 0 0 0 0 0 0 0 0 0 0 0 0 0 0 0
0 0 0 0 0 0 0 0 0 0 0 0 0 0 0 0 0 0 0 0 0 0 0 0 0 0 0 0 0 0 0 0 0 0 0 0 0 0 0 0 0 0 0 0
0 0 0 0 0 0 0 0 0 0 0 0 0 0 0 0 0 0 0 0 0 0 0 0 0 0 0 0 0 0 0 0 0 0 0 0 0 0 0 0 0 0 0 0
0 0 0 0 0 0 0 0 0 0 0 0 0 0 0 0 0 0 0 0 0 0 0 0 0 0 0 0 0 0 0 0 0 0 0 0 0 0 0 0 0 0 0 0
0 0 0 0 0 0 0 0 0 0 0 0 0 0 0 0 0 0 0 0 0 0 0 0 0 0 0 0 0 0 0 0 0 0 0 0 0 0 0 0 0 0 0 0

GEFSCGP_con_probscp_228.txt.gz
Probability
6 6 6 5 5 2 1 1 2 2 2 3 5 5 5 5 4 5 10 11 8 7 7 6 5 5 10 15 16 15 16 17 15 13 13 13 13 13 9 7 7 6 7 8
6 6 6 6 5 3 2 2 3 3 2 3 5 5 4 4 3 4 8 10 8 8 8 7 6 7 11 16 17 15 14 15 14 13 13 13 13 12 9 7 6 5 6 7
5 5 6 5 4 3 3 2 3 3 2 2 3 4 3 3 2 3 6 8 8 9 10 9 9 10 12 15 16 15 14 13 13 13 12 11 11 9 8 7 7 6 5 5
3 3 3 3 2 2 2 2 2 2 2 2 2 2 2 2 2 2 4 7 8 10 12 12 12 12 11 12 14 14 14 12 12 12 12 10 8 6 6 7 8 8 6 5
1 2 2 1 1 1 1 1 1 1 2 2 2 2 1 1 2 2 4 6 9 10 12 13 12 10 9 10 13 14 12 10 9 9 10 8 5 4 5 7 8 7 6 5
0 1 2 2 2 2 1 0 0 1 1 1 1 1 2 2 3 2 2 5 8 11 13 12 11 9 9 10 12 11 9 6 6 6 6 6 4 2 4 6 6 6 6 6
0 0 1 2 3 2 1 0 0 1 1 0 0 1 3 3 2 1 1 3 7 11 14 13 12 11 10 9 9 8 6 4 3 3 3 3 2 2 3 3 4 5 5 5
0 0 0 1 2 2 1 0 0 0 0 0 0 1 2 1 1 0 1 3 6 11 15 15 14 11 9 8 7 6 4 2 1 1 1 1 1 1 2 2 3 4 5 5
0 0 0 1 1 1 0 0 0 0 0 0 0 1 1 0 0 0 2 4 6 9 13 16 15 11 8 7 6 6 4 2 1 1 0 0 0 1 1 0 1 4 5 5
0 0 0 1 0 0 0 0 0 0 0 0 0 1 1 1 1 0 1 4 6 8 11 15 14 11 8 7 6 5 4 3 3 2 1 0 0 0 0 0 1 3 4 4
0 0 0 0 0 0 0 0 0 0 0 0 0 0 1 1 1 0 1 3 5 8 11 13 13 10 7 5 4 3 3 3 4 3 2 0 0 0 0 1 2 3 3 3
1 1 0 0 0 0 0 0 0 0 0 0 0 0 0 1 1 0 1 3 7 10 12 13 12 9 6 4 3 3 3 3 4 3 1 0 0 0 0 1 2 2 2 1
0 0 0 0 0 0 0 0 0 0 0 0 0 0 0 1 1 2 3 6 10 13 14 14 12 9 7 5 4 3 3 4 3 2 1 0 0 0 0 0 1 1 1 0
0 0 0 0 0 0 0 0 0 0 0 0 0 0 1 2 4 4 6 9 12 14 15 14 12 9 7 6 5 5 5 3 2 2 1 0 0 0 0 0 0 0 0 0
1 1 0 0 0 0 0 0 0 0 0 0 0 1 2 3 4 4 7 10 13 14 14 12 11 10 7 6 5 5 4 2 1 1 1 0 1 1 1 0 1 1 1 1
2 2 1 0 0 0 0 0 0 0 0 0 1 2 1 1 2 3 5 9 11 12 11 10 10 9 7 4 3 2 1 1 1 0 0 0 1 2 1 1 1 2 2 2
5 4 2 0 0 0 0 0 0 0 1 1 2 3 2 1 2 3 4 6 9 10 9 9 10 9 6 3 1 0 0 0 0 0 0 0 1 1 2 2 1 1 2 3
6 5 3 1 0 1 1 1 0 0 1 2 4 4 3 2 2 3 3 4 7 9 8 8 10 9 5 2 0 0 0 0 0 0 0 0 0 0 1 2 2 1 1 2
6 5 3 1 0 1 2 2 1 1 1 2 4 5 5 4 2 2 3 4 6 8 8 8 9 8 5 3 1 0 0 0 0 0 0 0 0 0 0 1 1 1 1 1
4 4 2 1 0 1 3 3 3 2 2 4 5 6 5 4 3 4 5 6 7 8 8 8 7 6 6 5 3 1 0 0 0 0 0 0 0 0 0 0 0 1 1 1
2 2 2 1 1 1 3 4 4 4 5 7 7 5 4 4 5 8 10 9 9 9 8 6 5 5 7 7 4 2 1 1 1 0 0 0 0 0 0 0 0 0 0 0
1 1 2 2 2 3 4 4 4 5 7 8 7 4 2 3 7 10 11 9 8 7 7 6 5 6 8 7 5 4 4 3 2 1 0 0 1 1 1 0 0 0 0 0
2 2 2 3 3 3 4 5 6 6 7 7 6 4 2 3 6 8 8 7 5 5 6 7 7 8 9 9 8 6 6 6 4 2 2 1 1 2 1 1 0 0 0 0
1 1 2 2 2 2 3 4 6 6 6 6 5 4 3 3 4 5 5 4 4 5 7 8 8 8 10 10 10 9 7 6 6 5 4 2 1 1 1 1 0 0 1 1
0 1 1 1 1 1 1 2 5 6 6 6 5 4 3 2 3 3 2 3 4 6 8 8 7 7 8 8 9 9 8 7 8 8 6 2 0 0 1 1 1 1 1 2
0 0 1 0 0 1 0 1 3 5 6 6 5 4 2 2 2 1 1 2 4 5 8 8 7 6 6 7 7 8 8 9 9 8 5 2 0 1 2 2 2 1 1 1

GEFSCGP_con_probscp_234.txt.gz
Probability
0 0 0 0 0 0 0 0 0 0 1 3 7 11 16 15 11 12 18 21 24 29 32 32 29 24 22 25 28 27 22 21 25 28 28 28 28 25 24 23 19 15 12 11
0 0 0 0 0 0 0 0 0 0 1 3 6 10 14 14 11 13 17 21 24 28 31 30 26 21 20 23 26 26 25 25 27 28 28 28 27 24 22 19 15 12 10 9
0 0 0 0 0 0 0 0 0 1 2 3 4 7 11 12 13 15 19 21 23 26 28 28 24 20 19 21 23 26 29 31 31 29 27 25 23 22 20 16 11 8 7 7
0 0 0 0 0 0 0 0 0 2 3 3 3 4 8 11 14 17 19 19 19 21 25 27 25 22 20 20 23 29 33 35 34 30 25 20 19 19 18 15 10 7 6 6
0 0 0 0 0 0 0 0 0 1 3 3 2 4 8 12 14 15 14 13 13 16 22 27 27 25 22 21 24 30 34 34 31 27 24 22 21 19 17 13 9 7 6 5
0 0 0 0 0 0 0 0 0 0 1 1 1 4 10 13 12 12 10 8 10 14 19 23 25 25 23 22 23 26 28 28 25 23 23 24 25 22 17 12 7 5 4 4
0 0 0 0 0 0 0 0 0 0 0 0 1 5 11 12 10 9 8 8 10 13 16 19 21 22 23 24 23 20 19 20 20 20 21 24 24 21 16 11 6 4 4 4
0 0 0 0 0 0 0 0 0 0 0 0 1 5 9 8 7 7 7 7 9 11 14 17 20 22 25 26 23 18 15 16 18 19 19 21 20 17 14 10 7 5 4 4
0 0 0 0 0 0 0 0 0 0 0 0 2 5 6 5 4 5 6 7 8 10 12 16 20 24 28 27 23 18 16 16 15 15 15 16 15 13 11 9 7 6 5 5
0 0 0 0 0 0 0 0 0 0 0 0 1 5 7 6 5 5 6 8 10 10 11 14 20 26 29 28 24 21 19 17 13 10 10 10 10 10 9 6 5 5 5 4
0 0 0 0 0 0 0 0 0 0 0 0 1 5 8 9 7 7 8 10 12 13 13 15 20 26 28 27 24 22 20 17 12 9 8 7 7 7 5 4 3 3 3 3
0 0 0 0 0 0 0 0 0 0 0 0 2 5 10 12 10 10 11 13 16 17 18 19 23 27 28 26 22 20 18 14 10 9 8 7 6 5 4 3 3 2 1 1
0 1 1 0 0 0 0 0 0 0 0 0 2 7 12 13 13 12 13 15 19 22 22 23 25 28 29 26 20 16 15 11 7 6 7 8 7 4 3 4 3 3 1 0
1 2 1 0 0 0 0 0 0 0 0 0 2 8 13 13 13 13 14 17 22 24 24 25 27 27 28 25 19 15 13 10 6 5 5 6 5 4 3 4 4 4 2 1
3 3 2 0 0 0 0 0 0 0 0 0 3 8 13 14 14 13 13 17 22 24 25 27 28 27 26 23 18 14 12 9 7 4 3 3 3 3 3 3 3 3 3 2
5 4 2 0 0 0 0 0 0 1 1 1 4 9 13 15 15 14 13 16 22 24 24 25 26 26 25 22 18 13 9 8 7 4 1 1 2 2 2 1 1 2 3 3
5 4 2 0 0 0 0 1 1 2 2 3 7 12 14 16 15 14 13 16 22 24 23 23 23 23 23 22 18 12 7 6 6 3 1 0 1 1 1 0 0 2 3 4
5 5 3 1 0 0 1 3 3 3 3 5 10 14 15 14 14 13 14 17 21 22 21 21 22 21 20 20 17 11 6 4 3 3 1 0 0 0 0 0 1 1 3 5
5 5 4 2 1 1 2 4 4 2 2 6 12 15 14 11 11 13 15 16 17 19 19 20 20 18 18 17 14 9 5 2 1 2 2 1 1 1 1 1 1 2 4 5
5 6 4 3 1 1 2 3 3 3 3 7 12 14 12 10 11 13 14 14 15 17 17 17 17 16 16 16 13 9 5 3 1 1 2 3 3 4 4 4 4 4 5 6
5 5 4 3 2 1 2 2 4 6 8 9 11 11 10 10 12 13 14 14 15 16 17 15 15 16 17 16 14 10 5 3 2 2 2 4 6 7 7 7 7 7 7 7
4 4 4 3 4 4 3 3 6 11 11 10 9 8 8 9 10 11 14 15 16 17 16 14 13 16 18 18 16 11 8 5 4 4 4 6 9 10 9 9 10 10 9 7
2 2 4 5 6 6 5 4 7 9 9 7 6 6 6 7 8 9 13 16 17 17 16 13 12 15 18 19 17 14 11 9 6 5 6 8 10 11 11 10 9 9 8 6
1 1 3 5 5 4 4 4 5 4 4 4 4 4 4 5 6 8 11 13 15 15 14 14 13 15 16 17 16 15 14 12 9 8 8 10 10 11 13 12 8 6 6 5
1 1 3 3 3 2 2 3 3 3 3 3 3 3 3 4 6 7 9 10 11 12 13 15 15 15 14 14 14 14 14 13 12 11 11 10 10 10 12 11 6 4 4 4
1 1 2 2 2 2 2 1 2 3 3 3 3 3 3 4 6 7 8 9 9 10 14 17 17 15 12 11 12 13 13 13 13 13 12 11 9 10 9 7 4 2 2 2

GEFSCGP_con_probscp_240.txt.gz
Probability
0 0 0 0 0 0 0 0 0 0 2 6 6 5 5 7 8 9 10 11 12 13 11 9 11 11 10 7 6 7 8 7 6 5 5 6 7 6 5 5 4 4 3 2
0 0 0 0 0 0 0 0 0 1 3 5 5 3 4 7 9 10 11 10 11 12 11 10 11 11 9 7 6 8 8 8 6 4 4 6 6 6 7 7 6 4 3 3
0 0 0 0 0 0 0 0 0 1 3 4 2 1 3 6 8 10 11 10 11 11 10 10 12 12 11 9 7 7 7 7 6 4 3 4 5 7 8 8 6 4 3 3
0 0 0 0 0 0 0 0 0 1 2 2 1 0 2 5 8 10 11 10 10 10 9 10 12 13 13 11 8 5 4 5 4 3 2 3 5 6 7 7 5 3 3 3
0 0 0 0 0 0 0 0 0 0 1 1 0 0 1 4 7 9 9 8 7 7 8 10 11 13 13 10 6 4 3 3 3 3 2 3 3 4 5 5 4 3 3 3
0 0 0 0 0 0 0 0 0 0 0 0 0 0 1 2 5 8 8 7 6 5 7 8 10 11 11 8 5 4 4 3 3 3 3 2 1 1 3 4 3 3 3 3
0 0 0 0 0 0 0 0 0 0 0 0 0 0 1 2 4 6 6 6 5 5 6 8 9 10 11 9 7 6 6 4 4 4 2 1 0 1 2 3 3 2 2 2
0 0 0 0 0 0 0 0 0 0 0 0 0 1 1 2 4 4 4 4 4 5 8 10 11 11 11 10 9 9 8 6 4 3 1 0 0 0 1 2 2 1 0 1
0 0 0 0 0 0 0 0 0 0 0 0 0 1 1 3 3 3 3 3 3 5 9 12 13 13 11 10 10 11 9 6 2 1 0 0 0 0 1 1 1 0 0 0
0 0 0 0 0 0 0 0 0 0 0 0 0 0 2 3 3 3 3 3 4 5 9 11 13 13 11 9 10 11 8 4 1 0 0 0 0 0 0 0 0 0 0 0
0 0 0 0 0 0 0 0 0 0 0 0 0 0 2 3 3 3 3 3 4 6 8 9 10 11 10 9 9 9 6 3 1 0 0 0 0 0 0 0 0 0 0 0
0 0 0 0 0 0 0 0 0 0 0 0 0 1 2 3 3 3 3 3 4 5 6 7 7 8 9 9 8 7 5 3 1 0 0 0 0 0 0 0 0 0 0 0
0 0 0 0 0 0 0 0 0 0 0 0 0 1 3 3 3 3 3 4 4 4 5 5 6 7 9 9 8 7 5 2 0 0 0 0 0 0 0 0 0 0 0 0
0 0 0 0 0 0 0 0 0 0 0 0 1 2 3 3 3 3 3 4 4 3 4 6 7 7 8 8 7 7 5 2 0 0 0 0 0 0 0 0 0 0 0 0
0 0 0 0 0 0 0 0 0 0 0 0 1 3 3 3 3 2 2 4 3 2 4 7 8 8 7 7 6 6 4 2 0 0 0 0 0 0 0 0 0 0 0 0
0 0 0 0 0 0 0 0 0 0 0 1 2 3 3 4 3 2 1 2 1 1 2 5 7 9 8 6 5 4 3 1 0 0 0 0 0 0 0 0 0 0 0 0
0 0 0 0 0 0 0 0 0 0 1 1 2 3 3 4 3 1 1 2 1 0 2 3 5 7 8 6 4 3 2 1 0 0 0 0 0 0 0 0 0 0 0 0
1 1 1 0 0 0 0 0 0 1 2 2 2 2 3 3 2 2 2 1 1 0 1 2 3 5 5 5 4 2 1 0 0 0 0 0 0 0 0 0 0 0 0 0
2 2 1 0 0 0 0 0 0 1 2 2 2 2 3 3 3 3 3 2 1 1 1 2 3 4 4 4 3 2 0 0 0 0 0 0 0 0 0 0 0 0 0 0
3 2 1 0 0 0 0 0 0 1 1 1 1 2 2 2 2 3 3 4 4 3 2 2 3 4 4 3 3 1 0 0 0 0 0 0 0 0 0 0 0 0 0 0
3 2 1 0 0 0 0 0 0 0 0 0 0 0 0 1 1 2 4 5 5 4 2 1 2 3 3 3 2 1 0 0 0 0 0 0 0 0 0 0 0 0 0 0
3 2 1 1 0 0 0 0 0 0 0 0 0 0 0 0 0 1 4 5 4 3 2 2 2 2 2 2 1 0 0 0 0 0 0 0 0 0 0 0 0 0 0 0
1 2 2 2 1 0 1 1 1 1 1 0 0 0 0 1 1 1 3 3 2 2 2 3 3 2 1 0 0 0 0 0 0 0 0 0 0 0 0 0 0 0 0 0
0 1 2 2 1 0 1 2 2 2 1 0 0 0 0 1 1 1 1 1 1 1 1 1 2 1 1 0 0 0 0 0 0 0 0 0 0 0 0 0 1 1 1 0
0 0 1 1 1 0 0 1 1 1 1 0 0 0 0 1 1 0 0 0 0 0 0 0 0 0 1 1 0 0 0 0 0 0 0 0 0 0 0 1 2 2 1 1
0 0 0 0 0 0 0 0 0 0 0 0 0 0 0 0 0 0 0 0 0 0 0 0 0 0 0 1 0 1 1 1 0 0 0 0 0 0 0 1 2 2 1 0

GEFSCGP_con_probscp_246.txt.gz
Probability
0 0 0 0 0 0 0 0 1 2 3 2 2 1 2 4 6 6 7 7 6 7 9 11 11 9 8 6 3 1 1 1 2 3 3 2 1 0 1 1 2 3 3 3
0 0 0 0 0 0 0 0 1 2 3 1 1 0 1 3 5 5 5 6 7 8 11 12 12 11 11 7 2 1 1 1 2 2 2 1 0 0 1 2 3 3 3 3
0 0 0 0 0 0 0 0 1 2 2 1 0 0 0 2 3 4 3 5 7 9 11 12 12 13 13 9 3 1 2 3 2 1 0 0 0 0 1 2 3 3 3 3
0 0 0 0 0 0 0 0 1 2 1 0 0 0 0 1 2 3 4 5 6 8 9 10 11 12 13 9 4 2 3 3 2 1 0 0 0 0 0 1 2 3 3 3
0 0 0 0 0 0 0 0 1 1 1 0 0 0 0 0 2 3 5 5 6 6 7 9 10 11 11 7 3 2 3 3 2 1 0 0 0 0 0 0 1 2 3 3
0 0 0 0 0 0 0 0 0 0 0 0 0 0 0 1 2 3 4 6 6 6 7 7 8 9 8 5 3 3 3 3 3 1 0 0 0 0 0 0 0 1 2 3
0 0 0 0 0 0 0 0 0 0 0 0 0 0 0 1 2 3 3 5 6 6 6 5 5 6 5 4 3 3 3 3 3 2 1 0 0 0 0 0 0 0 1 2
0 0 0 0 0 0 0 0 0 0 0 0 0 0 0 0 1 2 2 4 5 5 4 4 4 3 3 3 3 3 3 3 3 3 2 0 0 0 0 0 0 0 1 2
0 0 0 0 0 0 0 0 0 0 0 0 0 0 0 0 0 1 2 3 4 4 4 3 3 2 2 3 3 3 3 3 3 2 1 0 0 0 0 0 0 0 1 2
0 0 0 0 0 0 0 0 0 0 0 0 0 0 0 0 0 1 3 3 4 4 4 3 2 1 1 2 3 3 3 3 2 2 2 1 0 0 0 0 0 0 1 2
0 0 0 0 0 0 0 0 0 0 0 0 0 0 0 0 0 1 2 2 3 4 4 3 2 0 1 2 3 3 3 3 2 2 2 2 1 0 0 0 0 0 0 1
0 0 0 0 0 0 0 0 0 0 0 0 0 0 0 1 1 1 1 1 2 2 2 3 2 1 1 2 3 3 3 3 3 3 3 2 1 0 0 0 0 0 0 0
0 0 0 0 0 0 0 0 0 0 0 0 0 0 0 1 2 2 2 2 1 1 1 2 2 1 0 1 2 3 3 3 3 3 3 2 1 0 0 0 0 0 0 0
0 0 0 0 0 0 0 0 0 0 0 0 0 0 0 0 1 2 3 2 1 1 0 1 1 0 0 1 2 2 3 3 3 3 2 1 0 0 0 0 0 0 0 0
0 0 0 0 0 0 0 0 0 0 0 0 0 0 0 0 0 1 1 1 0 0 0 0 0 0 0 1 1 2 3 3 3 3 2 0 0 0 0 0 0 0 0 0
0 0 0 0 0 0 0 0 0 0 0 0 0 0 0 0 0 0 0 0 0 0 0 0 0 0 0 0 0 1 2 3 3 3 2 1 0 0 0 0 0 0 0 0
0 0 0 0 0 0 0 0 0 0 0 0 0 0 0 0 0 0 0 0 0 0 0 0 0 0 0 0 0 0 1 3 3 3 2 1 0 0 0 0 0 0 0 0
0 0 0 0 0 0 0 0 0 0 0 0 0 0 0 0 0 0 0 0 0 0 0 0 0 0 0 0 0 0 1 2 3 2 1 0 0 0 0 0 0 0 0 0
0 0 0 0 0 0 0 0 0 0 0 0 0 0 0 0 0 0 0 0 0 0 0 0 0 1 1 1 0 0 1 2 2 1 0 0 0 0 0 0 0 0 0 0
0 0 0 0 0 0 0 0 0 0 0 0 0 0 0 0 0 0 0 0 0 0 0 0 0 1 2 1 0 1 1 1 1 0 0 0 0 0 0 0 0 0 0 0
0 0 0 0 0 0 0 0 0 0 0 0 0 0 0 1 1 1 1 1 1 0 0 0 1 2 2 1 1 2 2 1 0 0 0 0 0 0 0 0 0 0 0 0
0 0 0 0 0 0 0 0 0 0 0 0 0 0 1 2 2 2 2 2 2 1 0 0 1 2 3 2 2 2 2 1 0 0 0 0 0 0 0 0 0 0 0 0
0 0 0 0 0 0 0 0 0 0 0 0 0 0 1 2 2 2 3 3 3 2 1 0 1 2 2 1 1 1 1 0 0 0 0 0 0 0 0 0 0 0 0 0
0 0 0 0 0 0 0 0 0 0 0 0 0 0 1 1 1 1 1 2 3 2 1 0 0 1 1 0 0 0 0 0 0 0 0 0 0 0 0 0 0 0 0 0
0 0 0 0 0 0 0 0 0 0 0 0 0 0 0 0 0 0 0 1 1 1 1 0 0 0 0 0 0 0 0 0 0 0 0 0 0 0 0 0 0 0 0 0
0 0 0 0 0 0 0 0 0 0 0 0 0 0 0 0 0 0 0 0 0 1 0 0 0 0 0 0 0 0 0 0 0 0 0 0 0 0 0 0 0 0 0 0

GEFSCGP_con_probscp_252.txt.gz
Probability
0 0 0 0 0 0 0 0 0 0 0 0 0 1 1 1 2 5 6 5 4 6 8 11 13 15 17 19 18 15 14 15 15 11 6 4 4 4 2 1 2 5 7 7
0 0 0 0 0 0 0 0 0 0 0 0 0 0 0 1 2 4 6 5 6 7 10 13 16 18 17 17 17 16 16 15 14 11 8 6 5 5 3 2 2 3 4 6
0 0 0 0 0 0 0 0 0 0 0 0 0 0 0 1 2 3 4 6 7 8 10 15 19 20 17 16 16 17 17 17 15 12 10 8 8 7 4 3 2 1 1 2
0 0 0 0 0 0 0 0 0 0 0 0 0 0 0 1 2 3 4 5 6 7 9 12 16 18 17 16 15 15 15 16 15 13 10 9 9 8 6 4 2 0 0 0
0 0 0 0 0 0 0 0 0 0 0 0 0 0 0 0 1 3 5 6 6 6 7 8 12 15 15 15 13 12 13 14 14 12 9 8 8 7 6 5 3 1 0 0
0 0 0 0 0 0 0 0 0 0 0 0 0 0 0 1 2 3 6 8 7 7 7 9 13 15 14 13 12 12 13 14 11 8 7 8 8 7 6 5 2 1 0 0
0 0 0 0 0 0 0 0 0 0 0 0 0 0 1 2 3 3 5 8 9 9 10 12 15 16 14 13 13 14 14 13 10 7 6 7 8 8 7 4 2 1 0 1
0 0 0 0 0 0 0 0 0 0 0 0 0 0 2 3 3 3 3 6 9 9 9 11 14 14 12 12 14 15 13 11 9 7 6 6 7 7 6 4 3 2 1 1
0 0 0 0 0 0 0 0 0 0 0 0 0 1 2 3 3 2 2 5 8 8 7 8 9 10 9 9 12 12 11 10 9 7 6 6 5 5 4 3 3 2 1 1
0 0 0 0 0 0 0 0 0 0 0 0 0 1 2 3 3 2 3 5 7 8 7 6 6 6 6 7 8 8 8 8 8 7 6 5 4 3 3 3 3 3 1 1
0 0 0 0 0 0 0 0 1 1 1 0 0 1 2 3 3 3 5 7 7 8 7 7 6 6 6 7 7 7 6 7 7 7 6 5 3 3 3 3 4 4 3 3
1 0 0 0 0 0 0 0 1 1 1 0 0 1 3 3 4 5 7 7 7 7 7 7 6 6 7 8 8 8 6 7 8 8 7 5 4 4 4 4 5 5 4 4
1 0 0 0 0 0 0 0 0 0 0 0 0 1 2 3 4 6 6 5 5 6 6 6 6 6 7 8 8 7 7 7 8 8 8 7 6 6 5 5 5 4 4 4
1 0 0 0 0 0 0 0 0 0 0 0 0 0 1 3 4 5 5 4 4 5 5 4 3 4 5 6 6 6 6 7 7 7 7 7 6 6 5 5 5 4 4 4
1 0 0 0 0 0 0 0 0 0 0 0 0 0 2 4 5 5 5 5 5 5 3 2 1 2 4 6 6 6 6 6 6 5 5 5 5 4 4 5 4 4 3 4
1 0 0 0 0 0 0 0 0 0 0 0 1 2 5 6 7 7 6 5 5 5 3 1 1 2 4 6 6 6 6 6 6 4 4 4 4 3 3 3 2 2 2 2
0 0 0 0 0 0 0 0 0 0 0 0 2 5 7 8 8 8 6 3 4 5 4 3 2 3 4 5 6 6 6 6 6 4 4 5 5 4 3 1 0 1 1 1
1 0 0 0 0 0 0 0 0 0 0 1 3 5 7 7 7 6 4 3 5 6 6 3 2 3 4 4 4 5 6 7 6 5 4 5 5 4 2 1 0 0 0 1
2 1 0 0 0 0 0 0 0 0 0 0 2 4 6 6 6 5 5 5 5 6 5 3 2 4 5 4 3 4 6 7 8 6 4 4 5 4 2 1 1 1 1 1
3 2 1 0 0 0 0 0 0 0 0 0 2 4 6 6 6 7 6 5 5 5 5 3 3 5 7 5 3 3 4 5 6 6 5 4 4 3 2 1 3 3 1 1
3 3 1 0 0 0 0 1 1 2 3 3 4 6 7 7 7 7 6 5 5 5 4 3 4 6 7 6 3 2 2 3 3 4 4 3 3 3 3 3 4 4 3 2
3 3 2 1 0 0 2 3 4 4 6 6 6 7 8 9 9 8 6 5 5 4 3 3 5 7 7 5 2 1 1 2 2 1 2 2 3 3 3 3 4 5 6 5
2 2 2 1 0 1 3 5 5 6 6 5 5 8 10 11 10 8 7 6 5 4 3 4 6 8 7 4 1 1 1 2 1 0 0 1 2 3 3 3 4 5 6 6
1 1 1 0 0 1 3 4 4 4 4 3 3 6 8 10 9 7 7 8 8 5 4 4 6 8 7 3 0 0 1 1 0 0 0 0 1 2 3 3 3 4 4 5
1 1 1 1 1 2 3 3 3 3 4 4 3 3 4 6 7 7 7 9 9 7 5 5 6 6 5 2 0 0 0 0 0 0 0 0 0 1 3 3 3 3 3 3
1 1 2 2 2 3 4 4 3 4 5 5 4 2 3 4 5 6 7 9 9 7 6 6 5 5 5 3 1 0 0 0 0 0 0 0 0 1 2 3 3 2 1 1